GW1914 Weather Reports


Display with metric or nautical units.
time (UTC)temp
F
wind
direction
speed
MPH
gust
MPH
rain 1hr
in
rain 24hr
in
rain mn
in
humidity
%
barometer
mb
20260903160034 55 175 4.0 10.0 0.00 0.28 0.03 81 1014.5
20260903155523 55 60 6.0 11.0 0.00 0.28 0.03 81 1014.5
20260903155031 55 175 5.0 10.0 0.00 0.28 0.03 80 1014.5
20260903154529 55 202 4.0 8.0 0.00 0.28 0.03 81 1014.5
20260903154020 55 213 4.0 8.0 0.00 0.28 0.03 80 1014.5
20260903153527 55 205 3.0 7.0 0.00 0.28 0.03 81 1014.5
20260903153023 55 223 3.0 7.0 0.00 0.28 0.03 81 1014.5
20260903152531 55 198 4.0 8.0 0.00 0.28 0.03 81 1014.5
20260903152024 55 202 2.0 9.0 0.00 0.28 0.03 81 1014.4
20260903151523 55 223 6.0 14.0 0.00 0.28 0.03 82 1014.4
20260903151031 55 241 7.0 15.0 0.00 0.28 0.03 80 1014.3
20260903150521 55 156 9.0 15.0 0.00 0.28 0.03 81 1014.2
20260903150020 55 184 8.0 13.0 0.00 0.28 0.03 82 1014.1
20260903145528 55 159 6.0 10.0 0.00 0.28 0.03 81 1014.1
20260903145037 55 136 5.0 10.0 0.00 0.28 0.03 82 1014.2
20260903144536 55 204 6.0 10.0 0.00 0.28 0.03 83 1014.1
20260903144023 55 192 7.0 10.0 0.00 0.28 0.03 83 1014.0
20260903143533 55 197 2.0 8.0 0.00 0.28 0.03 84 1013.8
20260903143051 55 174 5.0 8.0 0.00 0.28 0.03 84 1013.7
20260903142519 54 194 4.0 9.0 0.01 0.28 0.03 85 1013.7
20260903142032 54 144 6.0 8.0 0.01 0.28 0.03 85 1013.9
20260903141525 54 198 3.0 8.0 0.01 0.28 0.03 85 1013.9
20260903141020 54 241 4.0 7.0 0.01 0.28 0.03 85 1013.9
20260903140530 54 192 3.0 6.0 0.01 0.28 0.03 85 1013.8
20260903140026 54 205 3.0 6.0 0.01 0.28 0.03 84 1013.7
20260903135531 54 240 3.0 6.0 0.02 0.28 0.03 85 1013.7
20260903135021 54 206 3.0 7.0 0.02 0.28 0.03 85 1013.6
20260903134523 54 210 4.0 7.0 0.02 0.28 0.03 86 1013.5
20260903134031 54 154 3.0 6.0 0.02 0.28 0.03 85 1013.4
20260903133519 54 202 3.0 6.0 0.02 0.28 0.03 86 1013.4
20260903133035 54 178 4.0 6.0 0.02 0.28 0.03 85 1013.4
20260903132527 54 216 2.0 7.0 0.01 0.28 0.02 86 1013.3
20260903132034 54 182 3.0 7.0 0.01 0.28 0.02 87 1013.2
20260903131531 54 192 3.0 7.0 0.01 0.28 0.02 87 1013.1
20260903131018 54 109 2.0 6.0 0.01 0.28 0.02 86 1013.0
20260903130535 54 184 3.0 7.0 0.01 0.28 0.02 86 1012.9
20260903130028 54 217 3.0 8.0 0.01 0.28 0.02 85 1012.9
20260903125517 55 202 5.0 8.0 0.00 0.27 0.01 84 1012.8
20260903125027 55 342 3.0 9.0 0.00 0.27 0.01 85 1012.7
20260903124528 55 175 5.0 9.0 0.00 0.27 0.01 84 1012.7
20260903124033 55 201 2.0 11.0 0.00 0.27 0.01 85 1012.8
20260903123522 55 173 6.0 11.0 0.00 0.27 0.01 85 1012.7
20260903123018 55 220 6.0 9.0 0.00 0.27 0.01 86 1012.6
20260903122530 55 235 4.0 9.0 0.00 0.27 0.01 87 1012.6
20260903122038 54 201 4.0 9.0 0.00 0.27 0.01 87 1012.6
20260903121534 55 175 3.0 9.0 0.00 0.27 0.01 87 1012.6
20260903121027 55 157 3.0 8.0 0.00 0.27 0.01 87 1012.5
20260903120533 55 208 5.0 11.0 0.00 0.27 0.01 87 1012.6
20260903120027 55 178 6.0 9.0 0.00 0.27 0.01 87 1012.4
20260903115517 55 207 5.0 10.0 0.00 0.27 0.01 87 1012.3
20260903115028 55 196 5.0 10.0 0.00 0.27 0.01 87 1012.2
20260903114526 55 192 4.0 10.0 0.00 0.27 0.01 87 1012.3
20260903114034 55 202 6.0 10.0 0.00 0.27 0.01 86 1012.2
20260903113525 55 172 6.0 9.0 0.00 0.27 0.01 86 1012.2
20260903113034 55 214 3.0 9.0 0.00 0.27 0.01 87 1012.2
20260903112534 55 176 5.0 9.0 0.00 0.27 0.01 86 1012.2
20260903112024 55 181 5.0 10.0 0.00 0.27 0.01 86 1012.1
20260903111521 55 188 6.0 10.0 0.00 0.27 0.01 85 1012.1
20260903111029 55 207 6.0 9.0 0.00 0.27 0.01 86 1012.2
20260903110537 55 320 5.0 11.0 0.00 0.27 0.01 86 1012.1
20260903110032 55 187 5.0 11.0 0.00 0.27 0.01 86 1012.1
20260903105519 55 190 5.0 9.0 0.00 0.27 0.01 86 1012.2
20260903105029 55 196 5.0 9.0 0.00 0.27 0.01 86 1012.2
20260903104524 55 125 5.0 9.0 0.00 0.27 0.01 86 1012.1
20260903104018 55 213 3.0 9.0 0.01 0.27 0.01 86 1012.1
20260903103528 55 232 5.0 9.0 0.01 0.27 0.01 86 1012.1
20260903103024 55 186 6.0 9.0 0.01 0.27 0.01 86 1012.0
20260903102537 55 187 5.0 9.0 0.01 0.27 0.01 86 1012.1
20260903102027 55 204 6.0 10.0 0.01 0.27 0.01 85 1012.0
20260903101524 56 160 6.0 10.0 0.01 0.27 0.01 86 1011.9
20260903101031 56 160 5.0 9.0 0.01 0.27 0.01 86 1011.9
20260903100519 56 167 5.0 9.0 0.01 0.27 0.01 87 1011.9
20260903100034 56 201 5.0 10.0 0.01 0.27 0.01 86 1011.9
20260903095524 56 190 5.0 8.0 0.01 0.27 0.01 86 1011.8
20260903095032 56 172 5.0 8.0 0.01 0.27 0.01 87 1011.8
20260903094529 56 190 6.0 9.0 0.01 0.27 0.01 87 1011.8
20260903094037 56 204 5.0 9.0 0.00 0.26 0.00 87 1011.8
20260903093532 56 197 4.0 7.0 0.00 0.26 0.00 87 1011.7
20260903093034 56 195 2.0 7.0 0.00 0.26 0.00 87 1011.7
20260903092521 56 212 4.0 9.0 0.00 0.26 0.00 87 1011.6
20260903092029 56 169 4.0 9.0 0.00 0.26 0.00 87 1011.7
20260903091529 56 209 5.0 9.0 0.00 0.26 0.00 87 1011.7
20260903091030 56 181 5.0 8.0 0.00 0.26 0.00 86 1011.7
20260903090537 56 215 5.0 8.0 0.00 0.26 0.00 85 1011.7
20260903090034 56 161 5.0 7.0 0.00 0.26 0.00 84 1011.7
20260903085521 56 155 4.0 7.0 0.00 0.26 0.00 84 1011.8
20260903085032 57 202 5.0 7.0 0.00 0.26 0.00 83 1011.8
20260903084528 57 192 4.0 8.0 0.00 0.26 0.00 82 1011.8
20260903084035 57 194 2.0 8.0 0.00 0.26 0.00 80 1011.7
20260903083526 57 198 4.0 8.0 0.00 0.26 0.00 79 1011.6
20260903083028 58 192 2.0 7.0 0.00 0.26 0.00 81 1011.6
20260903082530 57 28 0.0 5.0 0.00 0.26 0.00 80 1011.6
20260903082024 58 157 3.0 6.0 0.00 0.26 0.00 80 1011.6
20260903081523 58 167 2.0 6.0 0.00 0.26 0.00 79 1011.6
20260903081030 58 208 3.0 5.0 0.00 0.26 0.00 80 1011.6
20260903080525 58 190 3.0 7.0 0.00 0.26 0.00 77 1011.6
20260903080017 58 221 4.0 7.0 0.00 0.26 0.00 77 1011.6
20260903075529 58 204 4.0 7.0 0.00 0.26 0.00 78 1011.6
20260903075035 58 157 4.0 7.0 0.00 0.26 0.00 78 1011.7
20260903074532 58 165 1.0 7.0 0.00 0.26 0.00 80 1011.7
20260903074020 58 213 3.0 7.0 0.00 0.26 0.00 80 1011.5
20260903073533 58 215 3.0 6.0 0.00 0.26 0.00 78 1011.6
20260903073032 58 214 1.0 6.0 0.00 0.26 0.00 78 1011.7
20260903072521 58 179 2.0 8.0 0.00 0.26 0.00 76 1011.7
20260903072028 58 67 3.0 8.0 0.00 0.26 0.00 76 1011.7
20260903071524 58 215 4.0 8.0 0.00 0.26 0.00 77 1011.6
20260903071037 58 69 4.0 8.0 0.00 0.26 0.00 76 1011.8
20260903070526 58 155 2.0 7.0 0.00 0.26 0.00 76 1011.6
20260903070022 58 221 1.0 8.0 0.00 0.26 0.26 78 1011.7
20260903065531 58 168 2.0 6.0 0.00 0.26 0.26 76 1011.8
20260903065020 58 204 4.0 6.0 0.00 0.26 0.26 77 1011.7
20260903064526 58 5 0.0 6.0 0.00 0.26 0.26 77 1011.8
20260903064028 58 108 1.0 6.0 0.00 0.26 0.26 75 1011.7
20260903063519 58 146 2.0 6.0 0.00 0.26 0.26 75 1011.8
20260903063032 59 242 2.0 6.0 0.00 0.26 0.26 75 1011.8
20260903062524 58 105 1.0 6.0 0.00 0.26 0.26 74 1011.9
20260903062031 58 50 0.0 2.0 0.00 0.26 0.26 77 1011.9
20260903061530 58 329 0.0 6.0 0.00 0.26 0.26 77 1011.9
20260903061035 58 178 1.0 6.0 0.00 0.26 0.26 76 1012.0
20260903060529 58 317 3.0 8.0 0.00 0.26 0.26 76 1012.1
20260903060022 58 191 4.0 8.0 0.00 0.26 0.26 76 1012.1
20260903055534 58 216 4.0 9.0 0.00 0.26 0.26 77 1012.1
20260903055024 58 187 6.0 9.0 0.00 0.26 0.26 79 1012.1
20260903054521 58 165 4.0 7.0 0.00 0.26 0.26 79 1012.0
20260903054028 58 192 4.0 7.0 0.00 0.26 0.26 80 1012.1
20260903053520 58 175 3.0 9.0 0.00 0.26 0.26 80 1012.1
20260903053037 58 166 5.0 9.0 0.00 0.26 0.26 79 1012.1
20260903052529 59 185 3.0 5.0 0.00 0.26 0.26 78 1012.1
20260903052037 59 182 0.0 7.0 0.00 0.26 0.26 80 1012.1
20260903051532 59 219 4.0 7.0 0.00 0.26 0.26 76 1012.1
20260903051025 58 196 3.0 8.0 0.00 0.26 0.26 79 1012.2
20260903050531 58 207 0.0 2.0 0.00 0.26 0.26 85 1012.2
20260903050032 58 174 0.0 0.0 0.00 0.26 0.26 86 1012.1
20260903045521 58 177 0.0 0.0 0.00 0.26 0.26 86 1012.2
20260903045033 58 133 0.0 0.0 0.00 0.26 0.26 86 1012.1
20260903044528 58 111 0.0 3.0 0.00 0.26 0.26 86 1012.1
20260903044042 58 190 1.0 3.0 0.00 0.26 0.26 87 1012.1
20260903043529 59 234 0.0 0.0 0.00 0.26 0.26 88 1012.0
20260903043036 58 203 0.0 4.0 0.00 0.26 0.26 88 1011.9
20260903042534 58 187 0.0 5.0 0.00 0.26 0.26 88 1011.9
20260903042024 58 89 1.0 3.0 0.11 0.26 0.26 88 1011.8
20260903041524 59 58 0.0 0.0 0.17 0.26 0.26 88 1011.8
20260903041029 59 333 0.0 0.0 0.18 0.26 0.26 86 1011.8
20260903040520 59 238 0.0 1.0 0.18 0.26 0.26 86 1011.8
20260903040036 59 204 0.0 1.0 0.18 0.26 0.26 86 1011.6
20260903035524 58 188 0.0 0.0 0.18 0.26 0.26 84 1011.5
20260903035018 58 320 0.0 0.0 0.18 0.26 0.26 82 1011.1
20260903034541 58 313 0.0 1.0 0.18 0.26 0.26 83 1010.9
20260903034025 59 292 0.0 5.0 0.18 0.26 0.26 83 1010.9
20260903033536 59 313 0.0 8.0 0.18 0.26 0.26 83 1010.8
20260903033030 59 315 3.0 9.0 0.18 0.26 0.26 83 1010.8
20260903032521 60 277 6.0 14.0 0.17 0.25 0.25 82 1010.6
20260903032028 61 262 7.0 20.0 0.07 0.15 0.15 80 1010.6
20260903031524 64 270 10.0 20.0 0.01 0.09 0.09 72 1010.3
20260903031034 65 240 3.0 5.0 0.00 0.08 0.08 67 1010.0
20260903030526 65 200 0.0 4.0 0.00 0.08 0.08 64 1009.6
20260903030020 65 122 1.0 6.0 0.00 0.08 0.08 63 1009.3
20260903025532 65 74 2.0 6.0 0.00 0.08 0.08 63 1009.1
20260903025018 65 123 1.0 5.0 0.00 0.08 0.08 64 1009.2
20260903024534 65 164 1.0 4.0 0.00 0.08 0.08 64 1009.2
20260903024025 66 107 0.0 6.0 0.00 0.08 0.08 63 1009.3
20260903023540 66 118 1.0 6.0 0.00 0.08 0.08 63 1009.3
20260903023034 66 120 2.0 6.0 0.00 0.08 0.08 62 1009.4
20260903022522 66 90 0.0 6.0 0.00 0.08 0.08 61 1009.4
20260903022032 66 100 2.0 6.0 0.00 0.08 0.08 60 1009.4
20260903021527 66 107 0.0 6.0 0.00 0.08 0.08 59 1009.5
20260903021018 66 116 0.0 5.0 0.00 0.08 0.08 59 1009.4
20260903020530 66 87 2.0 4.0 0.00 0.08 0.08 59 1009.4
20260903020044 66 82 1.0 4.0 0.00 0.08 0.08 58 1009.2
20260903015539 66 111 2.0 4.0 0.00 0.08 0.08 59 1009.3
20260903015021 66 124 0.0 8.0 0.00 0.08 0.08 59 1009.3
20260903014537 67 88 1.0 11.0 0.00 0.08 0.08 57 1009.3
20260903014027 67 66 6.0 11.0 0.00 0.08 0.08 57 1009.3
20260903013520 67 76 5.0 9.0 0.00 0.08 0.08 57 1009.1
20260903013034 67 67 2.0 6.0 0.00 0.08 0.08 57 1009.3
20260903012525 67 108 0.0 3.0 0.00 0.08 0.08 58 1009.4
20260903012040 67 106 0.0 6.0 0.00 0.08 0.08 57 1009.4
20260903011530 67 106 3.0 6.0 0.00 0.08 0.08 56 1009.4
20260903011018 67 114 2.0 8.0 0.00 0.08 0.08 56 1009.4
20260903010529 67 77 2.0 8.0 0.00 0.08 0.08 56 1009.4
20260903010025 67 60 2.0 8.0 0.00 0.08 0.08 56 1009.5
20260903005536 67 103 3.0 6.0 0.00 0.08 0.08 57 1009.6
20260903005024 67 83 2.0 7.0 0.00 0.08 0.08 57 1009.7
20260903004519 67 89 2.0 8.0 0.00 0.08 0.08 57 1009.7
20260903004031 67 79 3.0 9.0 0.00 0.08 0.08 57 1009.8
20260903003521 67 90 5.0 9.0 0.00 0.08 0.08 57 1009.9
20260903003036 67 98 5.0 9.0 0.00 0.08 0.08 58 1009.8
20260903002527 68 80 4.0 8.0 0.00 0.08 0.08 57 1009.9
20260903002019 68 115 1.0 3.0 0.00 0.08 0.08 57 1009.9
20260903001534 68 106 0.0 1.0 0.00 0.08 0.08 59 1010.0
20260903001028 68 190 0.0 1.0 0.00 0.08 0.08 60 1010.1
20260903000534 67 167 0.0 1.0 0.00 0.08 0.08 59 1010.2
20260903000028 67 180 0.0 3.0 0.00 0.08 0.08 60 1010.2
20260902235520 67 169 0.0 3.0 0.00 0.08 0.08 60 1010.3
20260902235029 67 132 0.0 1.0 0.00 0.08 0.08 59 1010.3
20260902234523 67 150 0.0 1.0 0.00 0.08 0.08 58 1010.3
20260902234034 67 118 0.0 6.0 0.00 0.08 0.08 57 1010.2
20260902233524 66 171 0.0 6.0 0.00 0.08 0.08 57 1010.3
20260902233020 66 119 1.0 7.0 0.00 0.08 0.08 57 1010.2
20260902232528 66 102 1.0 8.0 0.00 0.08 0.08 58 1010.2
20260902232017 66 121 3.0 8.0 0.00 0.08 0.08 58 1010.3
20260902231535 67 131 0.0 7.0 0.00 0.08 0.08 59 1010.3
20260902231025 67 115 0.0 7.0 0.00 0.08 0.08 57 1010.3
20260902230542 67 107 1.0 4.0 0.00 0.08 0.08 57 1010.5
20260902230035 67 192 0.0 4.0 0.00 0.08 0.08 59 1010.5
20260902225521 67 202 0.0 4.0 0.00 0.08 0.08 58 1010.7
20260902225035 67 164 1.0 4.0 0.00 0.08 0.08 58 1010.6
20260902224527 67 178 0.0 4.0 0.00 0.08 0.08 60 1010.7
20260902224018 67 92 1.0 3.0 0.00 0.08 0.08 59 1010.7
20260902223629 67 174 0.0 3.0 0.00 0.08 0.08 60 1010.8
20260902223029 66 181 1.0 4.0 0.00 0.08 0.08 60 1010.7
20260902222534 66 243 1.0 4.0 0.00 0.08 0.08 61 1011.0
20260902222024 66 171 0.0 1.0 0.00 0.08 0.08 63 1011.0
20260902221526 66 243 0.0 0.0 0.00 0.08 0.08 60 1011.0
20260902221029 66 124 0.0 4.0 0.00 0.08 0.08 63 1010.9
20260902220541 65 161 0.0 4.0 0.00 0.08 0.08 64 1011.1
20260902220035 65 126 0.0 1.0 0.00 0.08 0.08 64 1011.1
20260902215530 65 225 0.0 1.0 0.00 0.08 0.08 65 1011.2
20260902215019 65 149 0.0 3.0 0.00 0.08 0.08 64 1011.3
20260902214535 65 139 0.0 3.0 0.00 0.08 0.08 65 1011.3
20260902214026 64 105 0.0 2.0 0.00 0.08 0.08 66 1011.3
20260902213537 64 159 0.0 2.0 0.00 0.08 0.08 65 1011.4
20260902213034 64 246 0.0 1.0 0.00 0.08 0.08 66 1011.4
20260902212522 64 186 0.0 1.0 0.00 0.08 0.08 65 1011.5
20260902212032 64 107 0.0 1.0 0.00 0.08 0.08 66 1011.5
20260902211529 64 120 0.0 1.0 0.00 0.08 0.08 68 1011.6
20260902211019 63 169 0.0 2.0 0.00 0.08 0.08 67 1011.7
20260902210527 63 163 0.0 2.0 0.00 0.08 0.08 69 1011.6
20260902210024 63 184 0.0 2.0 0.00 0.08 0.08 70 1011.7
20260902205534 63 149 0.0 2.0 0.00 0.08 0.08 70 1011.8
20260902205027 63 309 0.0 2.0 0.00 0.08 0.08 70 1011.8
20260902204523 62 125 0.0 2.0 0.00 0.08 0.08 73 1011.7
20260902204032 62 113 0.0 2.0 0.00 0.08 0.08 73 1011.9
20260902203525 62 127 0.0 2.0 0.00 0.08 0.08 73 1012.0
20260902203018 61 84 0.0 3.0 0.00 0.08 0.08 74 1012.1
20260902202529 61 128 0.0 3.0 0.01 0.08 0.08 75 1012.2
20260902202019 61 132 0.0 4.0 0.01 0.08 0.08 76 1012.2
20260902201537 60 155 0.0 4.0 0.01 0.08 0.08 76 1012.1
20260902201026 60 51 0.0 2.0 0.01 0.08 0.08 77 1012.1
20260902200534 59 100 0.0 2.0 0.01 0.08 0.08 80 1012.2
20260902200033 59 146 0.0 1.0 0.01 0.08 0.08 80 1012.0
20260902195518 59 184 0.0 2.0 0.01 0.08 0.08 82 1012.2
20260902195032 59 216 0.0 3.0 0.01 0.08 0.08 82 1012.4
20260902194530 58 209 0.0 3.0 0.02 0.08 0.08 82 1012.4
20260902194019 58 146 0.0 6.0 0.03 0.08 0.08 84 1012.6
20260902193528 57 96 0.0 7.0 0.04 0.08 0.08 83 1012.6
20260902193025 57 94 1.0 7.0 0.05 0.08 0.08 84 1012.7
20260902192537 57 119 0.0 2.0 0.05 0.07 0.07 85 1012.7
20260902192022 57 103 0.0 3.0 0.06 0.07 0.07 84 1012.8
20260902191518 57 122 0.0 3.0 0.06 0.07 0.07 84 1012.8
20260902191028 57 142 0.0 3.0 0.07 0.07 0.07 83 1012.8
20260902190537 56 214 0.0 2.0 0.07 0.07 0.07 84 1012.8
20260902190034 56 10 0.0 3.0 0.07 0.07 0.07 85 1013.0
20260902185522 56 69 0.0 3.0 0.07 0.07 0.07 85 1013.0
20260902185033 56 96 0.0 7.0 0.07 0.07 0.07 84 1012.9
20260902184529 56 180 1.0 7.0 0.06 0.06 0.06 82 1013.1
20260902184019 57 219 0.0 4.0 0.05 0.05 0.05 82 1013.1
20260902183528 57 62 0.0 4.0 0.04 0.04 0.04 80 1012.9
20260902182518 57 355 1.0 8.0 0.02 0.02 0.02 78 1012.4
20260902182029 58 188 4.0 8.0 0.01 0.01 0.01 77 1012.4
20260902181526 58 5 2.0 9.0 0.01 0.01 0.01 78 1012.4
20260902181036 58 104 1.0 9.0 0.00 0.00 0.00 75 1012.4
20260902180524 59 183 1.0 8.0 0.00 0.00 0.00 75 1012.4
20260902180021 59 146 2.0 9.0 0.00 0.00 0.00 75 1012.4
20260902175531 59 146 5.0 11.0 0.00 0.00 0.00 74 1012.3
20260902175019 59 166 8.0 11.0 0.00 0.00 0.00 72 1012.5
20260902174538 59 212 7.0 10.0 0.00 0.00 0.00 72 1012.5
20260902174030 59 183 6.0 10.0 0.00 0.00 0.00 71 1012.2
20260902173517 59 76 4.0 9.0 0.00 0.00 0.00 70 1011.9
20260902173043 59 5 2.0 8.0 0.00 0.00 0.00 71 1011.9
20260902172524 59 153 3.0 8.0 0.00 0.00 0.00 69 1011.8
20260902172018 59 209 4.0 8.0 0.00 0.00 0.00 70 1011.9
20260902171539 59 42 4.0 6.0 0.00 0.00 0.00 68 1011.9
20260902171023 59 164 1.0 5.0 0.00 0.00 0.00 70 1011.7
20260902170534 59 211 1.0 6.0 0.00 0.00 0.00 69 1011.6
20260902170028 59 219 4.0 6.0 0.00 0.00 0.00 69 1011.6
20260902165537 59 213 3.0 8.0 0.00 0.00 0.00 69 1011.8
20260902165026 59 217 3.0 8.0 0.00 0.00 0.00 70 1011.7
20260902164524 59 217 3.0 9.0 0.00 0.00 0.00 70 1011.8
20260902164032 59 156 5.0 9.0 0.00 0.00 0.00 68 1011.8
20260902163522 59 89 6.0 10.0 0.00 0.00 0.00 69 1011.7
20260902163021 59 177 5.0 10.0 0.00 0.00 0.00 69 1011.5
20260902162529 59 198 6.0 10.0 0.00 0.00 0.00 68 1011.4
20260902162019 59 213 6.0 11.0 0.00 0.00 0.00 68 1011.4
20260902161540 59 205 6.0 11.0 0.00 0.00 0.00 68 1011.5
20260902161032 59 202 6.0 12.0 0.00 0.00 0.00 69 1011.5
20260902160519 59 191 6.0 15.0 0.00 0.00 0.00 69 1011.6